SCP
-0 -0 -0 -0 -0 -0 -0 0 0 0 0 0 0 0 0 0 0 0 -0 -0 -0 -0 -0 -0 0 0 0 0 0 -0 -0 -0 -0 -0 -0 -0 -0 -0 -0 -0 -0 -0 0
-0 -0 -0 -0 -0 -0 -0 -0 0 0 0 0 0 0 0 0 -0 -0 -0 -0 -0 -0 -0 -0 0 0 0 0 0 0 0 -0 0 0 0 0 -0 -0 -0 -0 -0 -0 0
0 -0 -0 -0 -0 -0 -0 -0 -0 -0 0 0 0 0 0 -0 -0 -0 -0 -0 -0 -0 -0 0 0 0 0 0 0 0 0 0 0 -0 -0 -0 -0 -0 -0 -0 -0 -0 0
0 -0 -0 -0 -0 -0 0 0 0 -0 0 0 0 0 0 0 -0 -0 -0 -0 0 -0 -0 0 0 0 0 0 0 0 0 0 0 -0 0 -0 -0 -0 -0 -0 0 0 -0
0 0 0 0 0 0 0 0 0 0 0 0 0 0 0 0 0 0 0 0 0 -0 0 0 0 0 0 0 0 0 0 0 0 -0 0 -0 -0 -0 -0 0 0 0 -0
0 0 0 0 0 0 0 0 0 0 0 0 0 -0 0 0 0 0 0 0 0 0 0 0 0 0 0 0 0 0 0 0 0 0 0 0 0 0 0 0 0 0 0
0 0 0 0 0 0 0 0 0 0 0 0 0 0 0 0 0 0 0 0 0 0 0 0 0 0 0 0 0 0 0 0 0 0 0 0 0 0 0 0 0 0 0
0 0 0 0 0 0 0 0 -0 0 0 0 0 0 0 0 0 0 0 0 0 0 0 0 0 0 0 0 0 0 0 0 0 0 0 0 0 0 0 -0 0 0 0
-0 0 0 0 0 0 0 0 0 0 0 0 0 0 0 0 0 0 0 0 0 0 0 0 0 0 0 0 0 0 0 0 0 0 0 0 0 -0 -0 0 0 0 0
-0 0 0 0 0 0 0 0 0 0 0 0 0 0 0 0 0 0 0 0 0 0 0 0 0 0 0 0 0 0 0 0 -0 0 0 0 0 0 0 0 0 0 0
0 0 0 0 0 0 0 0 0 0 0 0 0 0 0 0 0 0 0 0 0 0 0 0 0 0 0 0 0 0 0 -0 0 0 0 0 0 0 0 0 0 0 0
0 0 0 0 0 0 0 0 0 0 0 0 0 0 0 0 0 0 0 0 0 0 0 0 0 0 0 0 0 -0 -0 0 0 0 0 0 0 0 0 0 0 0 0
0 0 0 0 0 0 0 0 0 0 0 0 0 0 0 0 0 0 0 0 0 0 0 0 0 0 0 0 0 0 0 0 0 0 0 0 0 0 0 0 0 0 0
0 0 0 0 0 0 0 0 0 0 0 0 0 0 0 0 0 0 0 0 0 0 0 0 0 0 0 0 0 0 0 0 0 0 0 0 0 0 0 0 0 0 0
0 0 0 0 0 0 0 0 0 0 0 0 0 0 0 0 0 0 0 0 0 0 0 0 0 0 0 0 0 0 0 0 0 0 0 0 0 0 0 0 0 0 0
0 0 0 0 0 0 0 0 0 0 0 0 0 0 0 0 0 0 0 0 0 0 0 0 0 0 0 0 0 0 0 0 0 0 0 0 0 0 0 0 0 0 0
0 0 0 0 0 0 0 0 0 0 0 0 0 0 0 0 0 0 0 0 0 0 0 0 0 0 0 0 0 0 0 0 0 0 0 0 0 0 0 0 0 0 0
0 0 0 0 0 0 0 0 0 0 0 0 0 0 0 0 0 0 0 0 0 0 0 0 0 0 0 0 0 0 0 0 0 0 0 0 0 0 0 0 0 0 0
0 0 0 0 0 0 0 0 0 0 0 0 0 0 0 0 0 0 0 0 0 0 0 0 0 0 0 0 0 0 0 0 0 0 0 0 0 0 0 0 0 0 0
0 0 0 0 0 0 0 0 0 0 0 0 0 0 0 0 0 0 0 0 0 0 0 0 0 0 0 0 0 0 0 0 0 0 0 0 0 0 0 0 0 0 0
0 0 0 0 0 1 1 0 0 0 0 0 0 0 0 0 0 0 0 0 0 0 0 0 0 0 0 0 0 0 0 0 0 0 0 0 0 0 0 0 0 0 0
0 0 0 0 0 0 1 0 0 0 0 0 0 0 0 0 0 0 0 0 0 0 0 0 0 0 0 0 0 0 0 0 0 0 0 0 0 0 0 0 0 0 0
0 0 0 0 0 0 1 0 0 0 0 0 0 0 0 0 0 0 0 0 0 0 0 0 0 0 0 0 0 0 0 0 0 0 0 0 0 0 0 0 0 0 0
0 0 0 0 0 0 1 1 0 0 0 0 0 0 0 0 0 0 0 0 0 0 0 0 0 0 0 0 0 0 0 0 0 0 0 0 0 0 0 0 0 0 0
0 0 0 0 0 1 1 1 0 0 0 0 0 0 0 0 0 0 0 0 0 0 0 0 0 0 0 0 0 0 0 0 0 0 0 0 0 0 0 0 0 0 0
0 0 0 0 0 1 1 1 0 0 0 0 0 0 0 0 0 0 0 0 0 0 0 0 0 0 0 0 0 0 0 0 0 0 0 0 0 0 0 0 0 0 0
Wind_Speed_500mb
22 35 39 36 31 28 29 28 28 24 20 16 18 20 28 26 22 18 30 22 14 14 15 13 15 21 23 23 24 24 23 22 20 20 20 19 18 16 16 14 18 16 15
25 34 37 36 31 30 30 29 25 20 21 17 17 24 23 21 25 21 29 19 12 6 13 8 12 16 20 21 22 23 22 24 24 24 27 20 14 15 15 11 11 14 14
30 32 38 33 31 31 29 26 25 24 20 18 17 31 23 22 24 27 23 13 2 6 10 5 8 13 16 18 20 20 19 20 22 28 32 11 11 12 13 11 11 12 14
30 30 36 35 30 29 26 25 24 26 24 22 24 33 27 24 21 14 7 6 6 9 10 4 9 11 14 15 14 15 15 16 16 22 15 10 11 7 11 9 10 11 13
28 27 36 32 31 27 24 23 22 23 24 24 29 36 27 21 18 17 15 17 13 10 7 7 11 12 11 10 9 9 10 10 12 17 7 9 9 4 6 8 11 13 14
25 28 34 30 29 25 24 23 22 23 23 25 39 31 29 21 22 22 21 21 17 11 11 11 12 11 10 8 6 5 5 5 9 5 5 5 3 8 8 9 11 12 13
24 26 29 31 28 24 24 25 24 23 23 36 38 29 26 24 23 15 19 17 16 13 16 16 14 12 9 6 3 1 2 3 4 3 3 3 8 8 9 10 10 11 10
31 27 30 33 28 25 25 28 28 26 25 35 34 24 29 23 17 14 10 12 12 15 15 15 13 12 10 6 4 4 4 5 3 6 7 5 9 8 9 10 11 11 11
19 33 30 32 32 29 29 32 33 33 27 29 33 33 26 18 15 13 12 10 14 14 14 14 13 11 9 8 7 7 8 8 6 11 8 6 10 10 10 10 11 12 12
23 29 27 28 29 31 33 38 36 32 29 29 33 39 37 26 20 20 16 16 16 15 14 14 13 12 11 11 11 11 11 11 7 11 9 14 12 11 11 12 12 12 13
25 34 35 33 28 28 30 40 36 31 27 26 24 27 35 28 27 25 21 19 19 19 18 18 16 14 14 14 15 15 14 9 10 9 8 15 14 14 13 14 14 14 15
26 36 39 38 37 33 30 35 42 38 36 32 33 28 28 20 19 18 26 23 23 23 21 19 17 16 15 12 17 16 11 14 12 13 15 16 17 17 16 15 14 14 12
30 37 41 42 41 35 34 35 44 44 43 40 36 35 29 27 32 31 28 27 25 24 21 20 20 16 15 17 14 14 16 15 11 14 17 18 19 19 18 17 15 15 11
34 34 44 43 43 45 45 40 38 38 46 46 37 36 37 31 25 18 20 20 23 21 21 22 18 22 22 21 20 19 17 16 14 16 18 22 21 20 18 17 15 14 11
32 35 42 48 47 52 51 40 47 48 39 33 34 42 36 36 29 21 20 21 21 20 21 22 23 24 25 24 22 21 20 20 21 21 20 27 24 23 23 22 22 20 16
38 32 36 51 53 55 47 51 46 55 49 40 43 47 46 35 33 28 25 24 23 21 20 22 21 23 25 25 25 24 23 23 24 24 23 22 28 27 28 29 29 25 21
43 39 36 44 56 51 51 52 51 50 56 47 49 42 48 46 41 33 28 28 27 24 26 23 26 28 27 25 26 27 27 26 28 26 26 25 25 31 30 33 31 27 22
47 43 39 42 51 56 62 60 59 48 52 53 50 49 49 47 42 40 33 28 27 27 27 25 24 22 21 21 21 21 22 25 27 27 27 27 27 29 32 24 22 20 15
48 47 46 38 52 57 63 62 68 50 48 61 57 54 51 48 43 45 37 31 28 28 28 27 26 24 23 22 22 23 25 27 27 25 27 27 30 25 20 18 15 13 13
50 46 47 47 44 58 59 69 60 56 58 53 58 54 47 45 45 48 44 37 33 32 30 30 29 26 25 23 23 26 29 29 27 27 27 26 26 19 16 16 12 12 13
56 46 42 45 47 56 64 66 68 69 61 60 58 60 59 55 46 49 48 41 37 37 34 31 32 32 31 28 27 28 32 29 27 32 27 25 18 16 12 9 9 11 15
62 54 46 49 48 56 65 71 64 61 69 67 65 62 64 66 57 54 52 49 41 39 36 37 36 37 35 31 29 23 22 20 29 20 18 17 17 13 14 15 16 15 11
64 58 47 44 51 55 60 67 65 58 65 68 66 60 58 56 57 58 56 51 45 41 44 41 39 41 40 37 35 33 15 18 17 17 17 22 23 22 25 27 27 23 21
62 50 50 45 51 50 57 61 62 65 69 66 60 52 49 51 52 53 57 52 49 47 47 44 44 45 44 46 43 47 47 37 16 12 36 37 38 33 32 29 25 23 15
43 44 37 35 43 48 55 50 57 62 54 49 47 44 49 59 57 59 62 53 55 53 56 50 45 50 54 54 53 58 64 62 60 34 12 26 30 25 23 18 15 13 8
35 31 22 30 37 46 49 51 43 48 42 50 48 40 43 40 44 53 65 62 68 67 67 57 54 56 59 60 61 66 58 43 60 68 33 39 41 34 34 27 23 22 14
Wind_Direction_500mb
172 194 178 179 181 175 177 175 179 180 178 162 157 149 149 149 151 132 142 144 110 65 36 51 98 106 105 103 106 116 105 116 115 104 82 90 105 112 106 94 74 68 44
173 198 182 184 186 181 180 188 190 181 185 175 166 165 163 171 165 149 156 153 113 58 19 35 113 111 107 106 108 108 107 106 104 99 83 54 94 99 97 88 52 52 44
168 198 181 191 192 191 184 194 202 202 192 184 171 170 156 140 156 163 163 156 138 344 342 346 137 119 119 114 110 106 103 101 100 90 76 56 43 87 83 72 56 45 34
168 197 187 194 196 196 196 206 206 204 202 192 178 176 166 163 173 183 197 228 264 314 310 220 152 127 125 122 115 104 96 92 95 79 70 78 51 72 69 58 45 34 36
172 194 191 195 191 199 205 207 201 197 195 194 185 176 186 179 187 208 240 249 265 279 260 196 150 130 125 125 121 106 94 86 83 62 56 103 52 25 58 33 19 15 21
177 199 201 202 199 204 209 207 197 189 187 187 170 175 185 188 203 224 245 258 260 248 216 184 175 150 142 138 124 105 91 75 74 28 46 17 339 2 8 8 5 7 19
184 209 211 204 204 210 210 197 185 175 177 168 170 185 204 203 214 233 251 252 241 224 187 184 186 176 173 167 142 109 43 22 51 10 340 341 326 344 342 343 347 351 355
193 214 223 205 208 212 210 197 191 186 177 179 187 194 201 198 218 245 249 240 206 178 189 189 192 195 199 210 235 268 290 306 329 303 305 306 303 313 326 336 339 340 343
210 214 211 212 208 214 210 200 197 196 198 204 208 219 215 219 234 243 267 229 219 203 198 198 204 214 226 241 261 280 291 299 304 278 299 308 298 299 311 324 332 332 332
203 214 211 216 221 214 210 197 204 211 216 219 220 223 224 223 236 257 261 240 228 224 218 219 226 238 253 270 280 289 297 300 291 291 305 278 289 291 298 309 317 323 325
227 210 208 213 212 211 211 201 203 216 221 214 212 216 212 222 239 252 246 237 233 231 229 231 239 250 263 272 278 286 293 296 277 273 274 285 290 291 296 301 305 312 311
268 228 220 215 215 205 211 207 205 211 214 218 216 212 211 208 234 229 244 237 234 233 234 239 244 253 266 282 301 290 290 269 282 268 262 288 287 286 289 292 298 305 313
290 252 228 230 220 211 210 202 219 210 215 218 218 216 209 214 229 236 246 238 236 233 239 244 250 258 257 253 257 267 268 280 273 280 272 284 284 283 285 289 296 301 313
303 271 243 230 227 222 211 209 213 214 212 210 210 220 215 225 235 228 221 231 226 235 229 237 243 254 265 270 264 263 270 271 274 270 279 285 285 284 285 288 293 300 296
302 285 256 243 227 232 226 211 223 212 216 218 219 215 217 233 241 230 228 224 225 225 236 237 250 261 268 265 262 266 268 272 274 277 275 282 282 280 281 284 287 289 286
296 289 271 244 241 236 240 217 227 221 216 219 228 218 225 228 242 245 243 236 231 233 241 243 245 258 265 261 257 261 264 267 273 276 275 277 283 281 283 285 286 285 277
297 286 275 260 244 247 243 231 225 237 217 220 224 221 226 231 242 243 246 243 241 239 244 244 254 260 257 254 257 259 266 269 274 274 275 277 277 289 286 284 282 277 265
296 286 271 266 253 241 240 234 233 231 230 210 227 222 225 230 236 249 247 241 237 236 241 243 252 250 253 251 257 260 265 274 276 275 273 273 276 280 285 285 276 261 239
300 288 269 247 255 240 238 237 243 234 238 223 224 225 227 229 237 244 248 244 240 236 235 242 245 245 247 254 259 261 259 263 267 269 271 271 274 278 270 277 270 245 222
306 289 278 245 237 247 239 238 238 236 228 229 226 226 224 234 238 240 243 244 242 241 242 241 240 243 248 249 259 263 268 266 265 266 265 267 267 264 258 265 264 245 225
309 294 277 256 230 236 236 235 230 229 228 227 227 230 232 238 237 241 246 245 247 245 246 240 245 250 245 252 258 267 279 276 258 256 254 253 249 241 243 239 232 252 228
306 298 277 253 231 232 236 236 233 228 234 234 238 236 235 237 238 244 249 249 246 241 238 239 240 245 248 242 249 261 274 260 256 253 237 202 219 225 229 215 212 210 222
304 294 276 258 224 229 239 237 240 234 235 238 238 243 240 237 239 243 249 250 249 254 256 254 249 242 244 247 238 234 255 246 226 226 196 193 192 195 207 216 221 224 235
303 285 274 239 225 222 233 232 231 231 228 234 239 243 241 239 237 240 243 244 245 249 256 261 255 255 252 248 251 246 242 243 237 198 205 204 210 204 213 225 218 216 208
311 287 265 241 221 215 226 226 232 223 240 248 239 242 240 238 238 237 238 240 240 243 247 253 254 256 257 262 261 262 260 256 244 239 250 156 178 144 132 122 132 134 110
341 291 248 215 211 212 217 222 230 230 238 235 235 226 220 221 231 240 237 237 248 249 248 249 257 259 262 266 268 260 252 252 242 234 227 141 132 118 121 115 100 94 88
Wind_Speed_850mb
22 35 39 36 31 28 29 28 28 24 20 16 18 20 28 26 22 18 30 22 14 14 15 13 15 21 23 23 24 24 23 22 20 20 20 19 18 16 16 14 18 16 15
25 34 37 36 31 30 30 29 25 20 21 17 17 24 23 21 25 21 29 19 12 6 13 8 12 16 20 21 22 23 22 24 24 24 27 20 14 15 15 11 11 14 14
30 32 38 33 31 31 29 26 25 24 20 18 17 31 23 22 24 27 23 13 2 6 10 5 8 13 16 18 20 20 19 20 22 28 32 11 11 12 13 11 11 12 14
30 30 36 35 30 29 26 25 24 26 24 22 24 33 27 24 21 14 7 6 6 9 10 4 9 11 14 15 14 15 15 16 16 22 15 10 11 7 11 9 10 11 13
28 27 36 32 31 27 24 23 22 23 24 24 29 36 27 21 18 17 15 17 13 10 7 7 11 12 11 10 9 9 10 10 12 17 7 9 9 4 6 8 11 13 14
25 28 34 30 29 25 24 23 22 23 23 25 39 31 29 21 22 22 21 21 17 11 11 11 12 11 10 8 6 5 5 5 9 5 5 5 3 8 8 9 11 12 13
24 26 29 31 28 24 24 25 24 23 23 36 38 29 26 24 23 15 19 17 16 13 16 16 14 12 9 6 3 1 2 3 4 3 3 3 8 8 9 10 10 11 10
31 27 30 33 28 25 25 28 28 26 25 35 34 24 29 23 17 14 10 12 12 15 15 15 13 12 10 6 4 4 4 5 3 6 7 5 9 8 9 10 11 11 11
19 33 30 32 32 29 29 32 33 33 27 29 33 33 26 18 15 13 12 10 14 14 14 14 13 11 9 8 7 7 8 8 6 11 8 6 10 10 10 10 11 12 12
23 29 27 28 29 31 33 38 36 32 29 29 33 39 37 26 20 20 16 16 16 15 14 14 13 12 11 11 11 11 11 11 7 11 9 14 12 11 11 12 12 12 13
25 34 35 33 28 28 30 40 36 31 27 26 24 27 35 28 27 25 21 19 19 19 18 18 16 14 14 14 15 15 14 9 10 9 8 15 14 14 13 14 14 14 15
26 36 39 38 37 33 30 35 42 38 36 32 33 28 28 20 19 18 26 23 23 23 21 19 17 16 15 12 17 16 11 14 12 13 15 16 17 17 16 15 14 14 12
30 37 41 42 41 35 34 35 44 44 43 40 36 35 29 27 32 31 28 27 25 24 21 20 20 16 15 17 14 14 16 15 11 14 17 18 19 19 18 17 15 15 11
34 34 44 43 43 45 45 40 38 38 46 46 37 36 37 31 25 18 20 20 23 21 21 22 18 22 22 21 20 19 17 16 14 16 18 22 21 20 18 17 15 14 11
32 35 42 48 47 52 51 40 47 48 39 33 34 42 36 36 29 21 20 21 21 20 21 22 23 24 25 24 22 21 20 20 21 21 20 27 24 23 23 22 22 20 16
38 32 36 51 53 55 47 51 46 55 49 40 43 47 46 35 33 28 25 24 23 21 20 22 21 23 25 25 25 24 23 23 24 24 23 22 28 27 28 29 29 25 21
43 39 36 44 56 51 51 52 51 50 56 47 49 42 48 46 41 33 28 28 27 24 26 23 26 28 27 25 26 27 27 26 28 26 26 25 25 31 30 33 31 27 22
47 43 39 42 51 56 62 60 59 48 52 53 50 49 49 47 42 40 33 28 27 27 27 25 24 22 21 21 21 21 22 25 27 27 27 27 27 29 32 24 22 20 15
48 47 46 38 52 57 63 62 68 50 48 61 57 54 51 48 43 45 37 31 28 28 28 27 26 24 23 22 22 23 25 27 27 25 27 27 30 25 20 18 15 13 13
50 46 47 47 44 58 59 69 60 56 58 53 58 54 47 45 45 48 44 37 33 32 30 30 29 26 25 23 23 26 29 29 27 27 27 26 26 19 16 16 12 12 13
56 46 42 45 47 56 64 66 68 69 61 60 58 60 59 55 46 49 48 41 37 37 34 31 32 32 31 28 27 28 32 29 27 32 27 25 18 16 12 9 9 11 15
62 54 46 49 48 56 65 71 64 61 69 67 65 62 64 66 57 54 52 49 41 39 36 37 36 37 35 31 29 23 22 20 29 20 18 17 17 13 14 15 16 15 11
64 58 47 44 51 55 60 67 65 58 65 68 66 60 58 56 57 58 56 51 45 41 44 41 39 41 40 37 35 33 15 18 17 17 17 22 23 22 25 27 27 23 21
62 50 50 45 51 50 57 61 62 65 69 66 60 52 49 51 52 53 57 52 49 47 47 44 44 45 44 46 43 47 47 37 16 12 36 37 38 33 32 29 25 23 15
43 44 37 35 43 48 55 50 57 62 54 49 47 44 49 59 57 59 62 53 55 53 56 50 45 50 54 54 53 58 64 62 60 34 12 26 30 25 23 18 15 13 8
35 31 22 30 37 46 49 51 43 48 42 50 48 40 43 40 44 53 65 62 68 67 67 57 54 56 59 60 61 66 58 43 60 68 33 39 41 34 34 27 23 22 14
Wind_Direction_850mb
172 194 178 179 181 175 177 175 179 180 178 162 157 149 149 149 151 132 142 144 110 65 36 51 98 106 105 103 106 116 105 116 115 104 82 90 105 112 106 94 74 68 44
173 198 182 184 186 181 180 188 190 181 185 175 166 165 163 171 165 149 156 153 113 58 19 35 113 111 107 106 108 108 107 106 104 99 83 54 94 99 97 88 52 52 44
168 198 181 191 192 191 184 194 202 202 192 184 171 170 156 140 156 163 163 156 138 344 342 346 137 119 119 114 110 106 103 101 100 90 76 56 43 87 83 72 56 45 34
168 197 187 194 196 196 196 206 206 204 202 192 178 176 166 163 173 183 197 228 264 314 310 220 152 127 125 122 115 104 96 92 95 79 70 78 51 72 69 58 45 34 36
172 194 191 195 191 199 205 207 201 197 195 194 185 176 186 179 187 208 240 249 265 279 260 196 150 130 125 125 121 106 94 86 83 62 56 103 52 25 58 33 19 15 21
177 199 201 202 199 204 209 207 197 189 187 187 170 175 185 188 203 224 245 258 260 248 216 184 175 150 142 138 124 105 91 75 74 28 46 17 339 2 8 8 5 7 19
184 209 211 204 204 210 210 197 185 175 177 168 170 185 204 203 214 233 251 252 241 224 187 184 186 176 173 167 142 109 43 22 51 10 340 341 326 344 342 343 347 351 355
193 214 223 205 208 212 210 197 191 186 177 179 187 194 201 198 218 245 249 240 206 178 189 189 192 195 199 210 235 268 290 306 329 303 305 306 303 313 326 336 339 340 343
210 214 211 212 208 214 210 200 197 196 198 204 208 219 215 219 234 243 267 229 219 203 198 198 204 214 226 241 261 280 291 299 304 278 299 308 298 299 311 324 332 332 332
203 214 211 216 221 214 210 197 204 211 216 219 220 223 224 223 236 257 261 240 228 224 218 219 226 238 253 270 280 289 297 300 291 291 305 278 289 291 298 309 317 323 325
227 210 208 213 212 211 211 201 203 216 221 214 212 216 212 222 239 252 246 237 233 231 229 231 239 250 263 272 278 286 293 296 277 273 274 285 290 291 296 301 305 312 311
268 228 220 215 215 205 211 207 205 211 214 218 216 212 211 208 234 229 244 237 234 233 234 239 244 253 266 282 301 290 290 269 282 268 262 288 287 286 289 292 298 305 313
290 252 228 230 220 211 210 202 219 210 215 218 218 216 209 214 229 236 246 238 236 233 239 244 250 258 257 253 257 267 268 280 273 280 272 284 284 283 285 289 296 301 313
303 271 243 230 227 222 211 209 213 214 212 210 210 220 215 225 235 228 221 231 226 235 229 237 243 254 265 270 264 263 270 271 274 270 279 285 285 284 285 288 293 300 296
302 285 256 243 227 232 226 211 223 212 216 218 219 215 217 233 241 230 228 224 225 225 236 237 250 261 268 265 262 266 268 272 274 277 275 282 282 280 281 284 287 289 286
296 289 271 244 241 236 240 217 227 221 216 219 228 218 225 228 242 245 243 236 231 233 241 243 245 258 265 261 257 261 264 267 273 276 275 277 283 281 283 285 286 285 277
297 286 275 260 244 247 243 231 225 237 217 220 224 221 226 231 242 243 246 243 241 239 244 244 254 260 257 254 257 259 266 269 274 274 275 277 277 289 286 284 282 277 265
296 286 271 266 253 241 240 234 233 231 230 210 227 222 225 230 236 249 247 241 237 236 241 243 252 250 253 251 257 260 265 274 276 275 273 273 276 280 285 285 276 261 239
300 288 269 247 255 240 238 237 243 234 238 223 224 225 227 229 237 244 248 244 240 236 235 242 245 245 247 254 259 261 259 263 267 269 271 271 274 278 270 277 270 245 222
306 289 278 245 237 247 239 238 238 236 228 229 226 226 224 234 238 240 243 244 242 241 242 241 240 243 248 249 259 263 268 266 265 266 265 267 267 264 258 265 264 245 225
309 294 277 256 230 236 236 235 230 229 228 227 227 230 232 238 237 241 246 245 247 245 246 240 245 250 245 252 258 267 279 276 258 256 254 253 249 241 243 239 232 252 228
306 298 277 253 231 232 236 236 233 228 234 234 238 236 235 237 238 244 249 249 246 241 238 239 240 245 248 242 249 261 274 260 256 253 237 202 219 225 229 215 212 210 222
304 294 276 258 224 229 239 237 240 234 235 238 238 243 240 237 239 243 249 250 249 254 256 254 249 242 244 247 238 234 255 246 226 226 196 193 192 195 207 216 221 224 235
303 285 274 239 225 222 233 232 231 231 228 234 239 243 241 239 237 240 243 244 245 249 256 261 255 255 252 248 251 246 242 243 237 198 205 204 210 204 213 225 218 216 208
311 287 265 241 221 215 226 226 232 223 240 248 239 242 240 238 238 237 238 240 240 243 247 253 254 256 257 262 261 262 260 256 244 239 250 156 178 144 132 122 132 134 110
341 291 248 215 211 212 217 222 230 230 238 235 235 226 220 221 231 240 237 237 248 249 248 249 257 259 262 266 268 260 252 252 242 234 227 141 132 118 121 115 100 94 88